Location: Berg
(48.4333°N, 13.9167°E)
Time: 03:17:28
(UTC+00:00)

Cosmos 1844 Rocket - Pass Details

Date: 18 September 2020
Orbit: 823 x 846 km, 71.0° (Epoch: 24 October)

Event Time Altitude Azimuth Distance (km) Brightness Sun altitude
Rises 19:39:15 0° 211° (SSW) 3,347 5.8 -24.2°
Reaches altitude 10° 19:41:40 10° 213° (SSW) 2,419 5.1 -24.5°
Maximum altitude 19:47:13 76° 299° (WNW) 857 2.7 -25.3°
Drops below altitude 10° 19:52:49 10° 26° (NNE) 2,445 5.2 -26.0°
Sets 19:55:17 0° 28° (NNE) 3,386 6.0 -26.4°
